Location: Newark
(43.4545°N, 5.8521°W)
Time: 07:26:14
(UTC+00:00)

ISS - Pass Details

Date: 25 November 2019
Orbit: 411 x 421 km, 51.6° (Epoch: 15 December)

Event Time Altitude Azimuth Distance (km) Brightness Sun altitude
Rises 18:08:33 0° 242° (WSW) 2,347 1.8 -13.8°
Reaches altitude 10° 18:10:38 10° 245° (WSW) 1,489 0.4 -14.2°
Maximum altitude 18:13:58 70° 330° (NNW) 448 -3.6 -14.8°
Enters shadow 18:15:29 30° 47° (NE) 790 -2.9 -15.0°
